﻿bm_gid;bm_ident;bm_heure;bm_actuel;bm_reffluid;bm_refdense;bm_refexcep;bm_prevision;bm_cdate;bm_mdate
178;249;2024-05-17T18:45:00+00:00;1142;645;1228;1881;1438;2011-06-09;2024-05-17T22:56:42+00:00
179;250;2024-05-17T18:50:00+00:00;1441;592;1117;1677;1389;2011-06-09;2024-05-17T22:56:42+00:00
180;251;2024-05-17T18:55:00+00:00;1665;525;1011;1504;1330;2011-06-09;2024-05-17T22:56:42+00:00
181;252;2024-05-17T19:00:00+00:00;1097;525;903;1362;1290;2011-06-09;2024-05-17T22:56:42+00:00
182;253;2024-05-17T19:05:00+00:00;1151;487;798;1227;1223;2011-06-09;2024-05-17T22:56:42+00:00
183;254;2024-05-17T19:10:00+00:00;1304;456;698;1096;1163;2011-06-09;2024-05-17T22:56:42+00:00
184;255;2024-05-17T19:15:00+00:00;1381;407;614;985;1128;2011-06-09;2024-05-17T22:56:42+00:00
185;256;2024-05-17T19:20:00+00:00;1332;390;537;885;1187;2011-06-09;2024-05-17T22:56:42+00:00
186;257;2024-05-17T19:25:00+00:00;1337;373;470;796;1113;2011-06-09;2024-05-17T22:56:42+00:00
187;258;2024-05-17T19:30:00+00:00;833;430;426;712;1082;2011-06-09;2024-05-17T22:56:42+00:00
188;259;2024-05-17T19:35:00+00:00;1071;437;392;618;1093;2011-06-09;2024-05-17T22:56:42+00:00
189;260;2024-05-17T19:40:00+00:00;1056;447;364;539;1068;2011-06-09;2024-05-17T22:56:42+00:00
190;261;2024-05-17T19:45:00+00:00;1165;468;320;464;1050;2011-06-09;2024-05-17T22:56:42+00:00
191;262;2024-05-17T19:50:00+00:00;1051;514;310;410;1049;2011-06-09;2024-05-17T22:56:42+00:00
192;263;2024-05-17T19:55:00+00:00;1556;456;300;388;1059;2011-06-09;2024-05-17T22:56:42+00:00
193;264;2024-05-17T20:00:00+00:00;1552;471;300;367;1028;2011-06-09;2024-05-17T22:56:42+00:00
1;72;2024-05-17T04:00:00+00:00;1546;200;250;250;247;2011-06-09;2024-05-17T22:56:42+00:00
2;73;2024-05-17T04:05:00+00:00;1336;250;300;250;276;2011-06-09;2024-05-17T22:56:42+00:00
3;74;2024-05-17T04:10:00+00:00;1213;310;340;280;423;2011-06-09;2024-05-17T22:56:42+00:00
4;75;2024-05-17T04:15:00+00:00;1373;296;370;307;454;2011-06-09;2024-05-17T22:56:42+00:00
5;76;2024-05-17T04:20:00+00:00;1379;301;400;344;510;2011-06-09;2024-05-17T22:56:42+00:00
6;77;2024-05-17T04:25:00+00:00;783;270;439;400;545;2011-06-09;2024-05-17T22:56:42+00:00
7;78;2024-05-17T04:30:00+00:00;1320;246;483;465;601;2011-06-09;2024-05-17T22:56:42+00:00
8;79;2024-05-17T04:35:00+00:00;1016;238;528;522;555;2011-06-09;2024-05-17T22:56:42+00:00
9;80;2024-05-17T04:40:00+00:00;1629;256;572;641;578;2011-06-09;2024-05-17T22:56:42+00:00
10;81;2024-05-17T04:45:00+00:00;1527;267;627;849;697;2011-06-09;2024-05-17T22:56:42+00:00
11;82;2024-05-17T04:50:00+00:00;1880;268;727;1095;571;2011-06-09;2024-05-17T22:56:42+00:00
12;83;2024-05-17T04:55:00+00:00;1722;287;955;1502;637;2011-06-09;2024-05-17T22:56:42+00:00
13;84;2024-05-17T05:00:00+00:00;1744;313;1232;2014;829;2011-06-09;2024-05-17T22:56:42+00:00
14;85;2024-05-17T05:05:00+00:00;2031;358;1727;2676;1089;2011-06-09;2024-05-17T22:56:42+00:00
15;86;2024-05-17T05:10:00+00:00;1486;386;2371;3415;1443;2011-06-09;2024-05-17T22:56:42+00:00
16;87;2024-05-17T05:15:00+00:00;1778;471;3227;4367;2040;2011-06-09;2024-05-17T22:56:42+00:00
17;88;2024-05-17T05:20:00+00:00;2381;578;4166;5359;2797;2011-06-09;2024-05-17T22:56:42+00:00
18;89;2024-05-17T05:25:00+00:00;2625;723;5233;6382;3827;2011-06-09;2024-05-17T22:56:42+00:00
19;90;2024-05-17T05:30:00+00:00;3619;830;6356;7426;5119;2011-06-09;2024-05-17T22:56:42+00:00
20;91;2024-05-17T05:35:00+00:00;3734;913;7489;8576;6444;2011-06-09;2024-05-17T22:56:42+00:00
21;92;2024-05-17T05:40:00+00:00;3358;1004;8534;9770;7763;2011-06-09;2024-05-17T22:56:42+00:00
22;93;2024-05-17T05:45:00+00:00;4129;1122;9556;10954;8919;2011-06-09;2024-05-17T22:56:42+00:00
23;94;2024-05-17T05:50:00+00:00;5775;1244;10375;12084;9712;2011-06-09;2024-05-17T22:56:42+00:00
24;95;2024-05-17T05:55:00+00:00;5671;1429;11059;13199;10077;2011-06-09;2024-05-17T22:56:42+00:00
25;96;2024-05-17T06:00:00+00:00;6333;1536;11607;14153;10344;2011-06-09;2024-05-17T22:56:42+00:00
26;97;2024-05-17T06:05:00+00:00;5956;1678;12129;14999;10812;2011-06-09;2024-05-17T22:56:42+00:00
27;98;2024-05-17T06:10:00+00:00;6587;1792;12552;15691;11155;2011-06-09;2024-05-17T22:56:42+00:00
28;99;2024-05-17T06:15:00+00:00;5754;1962;12924;16302;11619;2011-06-09;2024-05-17T22:56:42+00:00
29;100;2024-05-17T06:20:00+00:00;6893;2073;13203;16696;12129;2011-06-09;2024-05-17T22:56:42+00:00
30;101;2024-05-17T06:25:00+00:00;6576;2198;13414;16995;12594;2011-06-09;2024-05-17T22:56:42+00:00
31;102;2024-05-17T06:30:00+00:00;7313;2315;13485;17163;12769;2011-06-09;2024-05-17T22:56:42+00:00
32;103;2024-05-17T06:35:00+00:00;8466;2391;13425;17108;12792;2011-06-09;2024-05-17T22:56:42+00:00
33;104;2024-05-17T06:40:00+00:00;9359;2373;13117;16828;12532;2011-06-09;2024-05-17T22:56:42+00:00
34;105;2024-05-17T06:45:00+00:00;10004;2340;12619;16428;11978;2011-06-09;2024-05-17T22:56:42+00:00
35;106;2024-05-17T06:50:00+00:00;9696;2234;11908;15885;11135;2011-06-09;2024-05-17T22:56:42+00:00
36;107;2024-05-17T06:55:00+00:00;8067;2137;11052;15256;9926;2011-06-09;2024-05-17T22:56:42+00:00
37;108;2024-05-17T07:00:00+00:00;7111;2050;10125;14548;8679;2011-06-09;2024-05-17T22:56:42+00:00
38;109;2024-05-17T07:05:00+00:00;6120;2080;9213;13771;7491;2011-06-09;2024-05-17T22:56:42+00:00
39;110;2024-05-17T07:10:00+00:00;5529;1949;8223;12948;6330;2011-06-09;2024-05-17T22:56:42+00:00
40;111;2024-05-17T07:15:00+00:00;4411;1820;7263;12102;5442;2011-06-09;2024-05-17T22:56:42+00:00
41;112;2024-05-17T07:20:00+00:00;4407;1688;6393;11240;4903;2011-06-09;2024-05-17T22:56:42+00:00
42;113;2024-05-17T07:25:00+00:00;3794;1623;5720;10356;4243;2011-06-09;2024-05-17T22:56:42+00:00
43;114;2024-05-17T07:30:00+00:00;4839;1547;5125;9503;3872;2011-06-09;2024-05-17T22:56:42+00:00
44;115;2024-05-17T07:35:00+00:00;4230;1561;4667;8720;3619;2011-06-09;2024-05-17T22:56:42+00:00
45;116;2024-05-17T07:40:00+00:00;4242;1638;4279;8108;3405;2011-06-09;2024-05-17T22:56:42+00:00
46;117;2024-05-17T07:45:00+00:00;4037;1701;3923;7572;3195;2011-06-09;2024-05-17T22:56:42+00:00
47;118;2024-05-17T07:50:00+00:00;4631;1792;3505;7080;2981;2011-06-09;2024-05-17T22:56:42+00:00
48;119;2024-05-17T07:55:00+00:00;5084;1848;3239;6700;2799;2011-06-09;2024-05-17T22:56:42+00:00
49;120;2024-05-17T08:00:00+00:00;3622;1788;2945;6260;2611;2011-06-09;2024-05-17T22:56:42+00:00
50;121;2024-05-17T08:05:00+00:00;4420;1880;2745;5940;2482;2011-06-09;2024-05-17T22:56:42+00:00
51;122;2024-05-17T08:10:00+00:00;4813;1942;2588;5620;2437;2011-06-09;2024-05-17T22:56:42+00:00
52;123;2024-05-17T08:15:00+00:00;3526;2097;2528;5400;2574;2011-06-09;2024-05-17T22:56:42+00:00
53;124;2024-05-17T08:20:00+00:00;3649;2187;2568;5280;2678;2011-06-09;2024-05-17T22:56:42+00:00
54;125;2024-05-17T08:25:00+00:00;3624;2291;2820;5180;2618;2011-06-09;2024-05-17T22:56:42+00:00
55;126;2024-05-17T08:30:00+00:00;4366;2376;3040;5120;2660;2011-06-09;2024-05-17T22:56:42+00:00
56;127;2024-05-17T08:35:00+00:00;4609;2387;3280;5060;2792;2011-06-09;2024-05-17T22:56:42+00:00
57;128;2024-05-17T08:40:00+00:00;4986;2377;3480;4920;2815;2011-06-09;2024-05-17T22:56:42+00:00
58;129;2024-05-17T08:45:00+00:00;3925;2433;3580;4774;2740;2011-06-09;2024-05-17T22:56:42+00:00
59;130;2024-05-17T08:50:00+00:00;4626;2491;3520;4634;2803;2011-06-09;2024-05-17T22:56:42+00:00
60;131;2024-05-17T08:55:00+00:00;4606;2507;3380;4490;2798;2011-06-09;2024-05-17T22:56:42+00:00
61;132;2024-05-17T09:00:00+00:00;4776;2470;3160;4434;2751;2011-06-09;2024-05-17T22:56:42+00:00
62;133;2024-05-17T09:05:00+00:00;5273;2541;2940;4435;2663;2011-06-09;2024-05-17T22:56:42+00:00
63;134;2024-05-17T09:10:00+00:00;5141;2482;2740;4263;2634;2011-06-09;2024-05-17T22:56:42+00:00
64;135;2024-05-17T09:15:00+00:00;5032;2459;2620;3987;2581;2011-06-09;2024-05-17T22:56:42+00:00
65;136;2024-05-17T09:20:00+00:00;5099;2450;2480;3799;2457;2011-06-09;2024-05-17T22:56:42+00:00
66;137;2024-05-17T09:25:00+00:00;3833;2438;2480;3732;2357;2011-06-09;2024-05-17T22:56:42+00:00
67;138;2024-05-17T09:30:00+00:00;4357;2432;2510;3735;2379;2011-06-09;2024-05-17T22:56:42+00:00
68;139;2024-05-17T09:35:00+00:00;4657;2478;2570;3706;2435;2011-06-09;2024-05-17T22:56:42+00:00
69;140;2024-05-17T09:40:00+00:00;4922;2573;2660;3771;2492;2011-06-09;2024-05-17T22:56:42+00:00
70;141;2024-05-17T09:45:00+00:00;5592;2680;2820;3845;2539;2011-06-09;2024-05-17T22:56:42+00:00
71;142;2024-05-17T09:50:00+00:00;6343;2758;3040;3828;2644;2011-06-09;2024-05-17T22:56:42+00:00
72;143;2024-05-17T09:55:00+00:00;5247;2834;3350;3784;2823;2011-06-09;2024-05-17T22:56:42+00:00
73;144;2024-05-17T10:00:00+00:00;5033;2819;3730;4251;3098;2011-06-09;2024-05-17T22:56:42+00:00
74;145;2024-05-17T10:05:00+00:00;4922;2860;4280;4970;3439;2011-06-09;2024-05-17T22:56:42+00:00
75;146;2024-05-17T10:10:00+00:00;5158;2838;4640;5448;3716;2011-06-09;2024-05-17T22:56:42+00:00
76;147;2024-05-17T10:15:00+00:00;6019;2793;4720;5628;3833;2011-06-09;2024-05-17T22:56:42+00:00
77;148;2024-05-17T10:20:00+00:00;5740;2692;4560;5668;3707;2011-06-09;2024-05-17T22:56:42+00:00
78;149;2024-05-17T10:25:00+00:00;7386;2617;4240;5308;3418;2011-06-09;2024-05-17T22:56:42+00:00
79;150;2024-05-17T10:30:00+00:00;5986;2474;3680;4700;3012;2011-06-09;2024-05-17T22:56:42+00:00
80;151;2024-05-17T10:35:00+00:00;6020;2269;3120;4220;2625;2011-06-09;2024-05-17T22:56:42+00:00
81;152;2024-05-17T10:40:00+00:00;6053;1999;2580;3900;2277;2011-06-09;2024-05-17T22:56:42+00:00
82;153;2024-05-17T10:45:00+00:00;6169;1822;2140;3552;2015;2011-06-09;2024-05-17T22:56:42+00:00
83;154;2024-05-17T10:50:00+00:00;5320;1650;1820;3192;1701;2011-06-09;2024-05-17T22:56:42+00:00
84;155;2024-05-17T10:55:00+00:00;4173;1476;1620;2820;1485;2011-06-09;2024-05-17T22:56:42+00:00
85;156;2024-05-17T11:00:00+00:00;4974;1281;1520;2649;1344;2011-06-09;2024-05-17T22:56:42+00:00
86;157;2024-05-17T11:05:00+00:00;3760;1167;1470;2526;1374;2011-06-09;2024-05-17T22:56:42+00:00
87;158;2024-05-17T11:10:00+00:00;3930;1123;1710;2432;1438;2011-06-09;2024-05-17T22:56:42+00:00
88;159;2024-05-17T11:15:00+00:00;4371;1161;1930;2412;1602;2011-06-09;2024-05-17T22:56:42+00:00
89;160;2024-05-17T11:20:00+00:00;3121;1182;2130;2673;1785;2011-06-09;2024-05-17T22:56:42+00:00
90;161;2024-05-17T11:25:00+00:00;2995;1323;2410;2814;2172;2011-06-09;2024-05-17T22:56:42+00:00
91;162;2024-05-17T11:30:00+00:00;3916;1443;2760;3020;2344;2011-06-09;2024-05-17T22:56:42+00:00
92;163;2024-05-17T11:35:00+00:00;3577;1545;3100;3472;2854;2011-06-09;2024-05-17T22:56:42+00:00
93;164;2024-05-17T11:40:00+00:00;4004;1603;3520;4031;3431;2011-06-09;2024-05-17T22:56:42+00:00
94;165;2024-05-17T11:45:00+00:00;4950;1720;3940;4541;3800;2011-06-09;2024-05-17T22:56:42+00:00
95;166;2024-05-17T11:50:00+00:00;5447;1938;4320;4931;4250;2011-06-09;2024-05-17T22:56:42+00:00
96;167;2024-05-17T11:55:00+00:00;5295;2148;4560;5208;4500;2011-06-09;2024-05-17T22:56:42+00:00
97;168;2024-05-17T12:00:00+00:00;5496;2245;4520;5198;4700;2011-06-09;2024-05-17T22:56:42+00:00
98;169;2024-05-17T12:05:00+00:00;5562;2343;4340;5080;4750;2011-06-09;2024-05-17T22:56:42+00:00
99;170;2024-05-17T12:10:00+00:00;5857;2404;4060;4840;4780;2011-06-09;2024-05-17T22:56:42+00:00
100;171;2024-05-17T12:15:00+00:00;6149;2523;3740;4760;4750;2011-06-09;2024-05-17T22:56:42+00:00
101;172;2024-05-17T12:20:00+00:00;4275;2530;3580;4780;4780;2011-06-09;2024-05-17T22:56:42+00:00
102;173;2024-05-17T12:25:00+00:00;4707;2598;3500;4920;4890;2011-06-09;2024-05-17T22:56:42+00:00
103;174;2024-05-17T12:30:00+00:00;5333;2663;3540;5020;4900;2011-06-09;2024-05-17T22:56:42+00:00
104;175;2024-05-17T12:35:00+00:00;5973;2715;3700;5120;5000;2011-06-09;2024-05-17T22:56:42+00:00
105;176;2024-05-17T12:40:00+00:00;4401;2787;3900;5180;5200;2011-06-09;2024-05-17T22:56:42+00:00
106;177;2024-05-17T12:45:00+00:00;5975;2754;4020;5220;5250;2011-06-09;2024-05-17T22:56:42+00:00
107;178;2024-05-17T12:50:00+00:00;6099;2802;4080;5180;5300;2011-06-09;2024-05-17T22:56:42+00:00
108;179;2024-05-17T12:55:00+00:00;5568;2854;4040;5220;5400;2011-06-09;2024-05-17T22:56:42+00:00
109;180;2024-05-17T13:00:00+00:00;5294;2893;3900;5240;5456;2011-06-09;2024-05-17T22:56:42+00:00
110;181;2024-05-17T13:05:00+00:00;5658;2864;3860;5306;5596;2011-06-09;2024-05-17T22:56:42+00:00
111;182;2024-05-17T13:10:00+00:00;5599;2826;3900;5446;5776;2011-06-09;2024-05-17T22:56:42+00:00
112;183;2024-05-17T13:15:00+00:00;6686;2818;3980;5626;5896;2011-06-09;2024-05-17T22:56:42+00:00
113;184;2024-05-17T13:20:00+00:00;5898;2766;4100;5746;6016;2011-06-09;2024-05-17T22:56:42+00:00
114;185;2024-05-17T13:25:00+00:00;4643;2792;4280;5866;6191;2011-06-09;2024-05-17T22:56:42+00:00
177;248;2024-05-17T18:40:00+00:00;1383;670;1350;2115;1507;2011-06-09;2024-05-17T22:56:42+00:00
115;186;2024-05-17T13:30:00+00:00;4673;2882;4440;6041;6390;2011-06-09;2024-05-17T22:56:42+00:00
116;187;2024-05-17T13:35:00+00:00;5105;2853;4620;6240;6710;2011-06-09;2024-05-17T22:56:42+00:00
117;188;2024-05-17T13:40:00+00:00;5837;2910;4840;6560;7090;2011-06-09;2024-05-17T22:56:42+00:00
118;189;2024-05-17T13:45:00+00:00;6634;2925;5160;6940;7490;2011-06-09;2024-05-17T22:56:42+00:00
119;190;2024-05-17T13:50:00+00:00;5956;3046;5500;7340;7890;2011-06-09;2024-05-17T22:56:42+00:00
120;191;2024-05-17T13:55:00+00:00;6602;3047;5820;7740;8390;2011-06-09;2024-05-17T22:56:42+00:00
121;192;2024-05-17T14:00:00+00:00;6132;3161;6160;8240;9050;2011-06-09;2024-05-17T22:56:42+00:00
122;193;2024-05-17T14:05:00+00:00;6899;3286;6544;8900;9588;2011-06-09;2024-05-17T22:56:42+00:00
123;194;2024-05-17T14:10:00+00:00;7519;3417;6978;9438;10127;2011-06-09;2024-05-17T22:56:42+00:00
124;195;2024-05-17T14:15:00+00:00;7678;3547;7433;9977;10665;2011-06-09;2024-05-17T22:56:42+00:00
125;196;2024-05-17T14:20:00+00:00;7766;3699;7878;10515;11204;2011-06-09;2024-05-17T22:56:42+00:00
126;197;2024-05-17T14:25:00+00:00;8817;3779;8356;11054;11804;2011-06-09;2024-05-17T22:56:42+00:00
127;198;2024-05-17T14:30:00+00:00;8235;3870;8867;11654;12458;2011-06-09;2024-05-17T22:56:42+00:00
128;199;2024-05-17T14:35:00+00:00;8855;3932;9389;12308;13150;2011-06-09;2024-05-17T22:56:42+00:00
129;200;2024-05-17T14:40:00+00:00;8894;4041;10000;13000;13842;2011-06-09;2024-05-17T22:56:42+00:00
130;201;2024-05-17T14:45:00+00:00;10641;4139;10611;13692;14250;2011-06-09;2024-05-17T22:56:42+00:00
131;202;2024-05-17T14:50:00+00:00;10976;4359;11167;14423;14750;2011-06-09;2024-05-17T22:56:42+00:00
132;203;2024-05-17T14:55:00+00:00;9849;4578;11706;15192;15250;2011-06-09;2024-05-17T22:56:42+00:00
133;204;2024-05-17T15:00:00+00:00;10379;4723;12191;16088;15380;2011-06-09;2024-05-17T22:56:42+00:00
134;205;2024-05-17T15:05:00+00:00;10792;4884;12635;16765;15480;2011-06-09;2024-05-17T22:56:42+00:00
135;206;2024-05-17T15:10:00+00:00;11629;5012;13030;17412;15480;2011-06-09;2024-05-17T22:56:42+00:00
136;207;2024-05-17T15:15:00+00:00;12063;5123;13347;18029;15430;2011-06-09;2024-05-17T22:56:42+00:00
137;208;2024-05-17T15:20:00+00:00;12292;5237;13535;18618;15420;2011-06-09;2024-05-17T22:56:42+00:00
138;209;2024-05-17T15:25:00+00:00;11495;5389;13580;19118;15300;2011-06-09;2024-05-17T22:56:42+00:00
139;210;2024-05-17T15:30:00+00:00;12615;5471;13524;19529;15100;2011-06-09;2024-05-17T22:56:42+00:00
140;211;2024-05-17T15:35:00+00:00;12314;5524;13369;19882;15000;2011-06-09;2024-05-17T22:56:42+00:00
141;212;2024-05-17T15:40:00+00:00;11118;5590;13163;20176;14500;2011-06-09;2024-05-17T22:56:42+00:00
142;213;2024-05-17T15:45:00+00:00;11092;5564;12900;20382;13250;2011-06-09;2024-05-17T22:56:42+00:00
143;214;2024-05-17T15:50:00+00:00;10025;5477;12567;20471;12700;2011-06-09;2024-05-17T22:56:42+00:00
144;215;2024-05-17T15:55:00+00:00;10608;5405;12117;20382;12258;2011-06-09;2024-05-17T22:56:42+00:00
145;216;2024-05-17T16:00:00+00:00;11231;5318;11633;20206;11353;2011-06-09;2024-05-17T22:56:42+00:00
146;217;2024-05-17T16:05:00+00:00;10090;5210;11189;19912;11031;2011-06-09;2024-05-17T22:56:42+00:00
147;218;2024-05-17T16:10:00+00:00;9057;5072;10756;19529;10549;2011-06-09;2024-05-17T22:56:42+00:00
148;219;2024-05-17T16:15:00+00:00;9647;4905;10311;19029;10329;2011-06-09;2024-05-17T22:56:42+00:00
149;220;2024-05-17T16:20:00+00:00;11172;4736;9856;18471;10025;2011-06-09;2024-05-17T22:56:42+00:00
150;221;2024-05-17T16:25:00+00:00;10000;4503;9322;17882;9504;2011-06-09;2024-05-17T22:56:42+00:00
151;222;2024-05-17T16:30:00+00:00;8529;4240;8767;17265;8818;2011-06-09;2024-05-17T22:56:42+00:00
152;223;2024-05-17T16:35:00+00:00;9106;3917;8211;16615;8329;2011-06-09;2024-05-17T22:56:42+00:00
153;224;2024-05-17T16:40:00+00:00;8345;3681;7711;15846;7541;2011-06-09;2024-05-17T22:56:42+00:00
154;225;2024-05-17T16:45:00+00:00;8323;3442;7233;15115;7253;2011-06-09;2024-05-17T22:56:42+00:00
155;226;2024-05-17T16:50:00+00:00;7296;3243;6744;14385;6517;2011-06-09;2024-05-17T22:56:42+00:00
156;227;2024-05-17T16:55:00+00:00;6671;3001;6244;13654;5953;2011-06-09;2024-05-17T22:56:42+00:00
157;228;2024-05-17T17:00:00+00:00;6145;2808;5767;12923;5447;2011-06-09;2024-05-17T22:56:42+00:00
158;229;2024-05-17T17:05:00+00:00;5798;2522;5278;12231;5262;2011-06-09;2024-05-17T22:56:42+00:00
159;230;2024-05-17T17:10:00+00:00;5955;2358;4867;11615;4885;2011-06-09;2024-05-17T22:56:42+00:00
160;231;2024-05-17T17:15:00+00:00;5265;2145;4500;11000;4537;2011-06-09;2024-05-17T22:56:42+00:00
161;232;2024-05-17T17:20:00+00:00;6617;2066;4167;10385;4203;2011-06-09;2024-05-17T22:56:42+00:00
162;233;2024-05-17T17:25:00+00:00;5915;1973;3878;9769;3827;2011-06-09;2024-05-17T22:56:42+00:00
163;234;2024-05-17T17:30:00+00:00;4825;1866;3589;9154;3522;2011-06-09;2024-05-17T22:56:42+00:00
164;235;2024-05-17T17:35:00+00:00;5333;1757;3333;8538;3362;2011-06-09;2024-05-17T22:56:42+00:00
165;236;2024-05-17T17:40:00+00:00;4511;1593;3078;7923;3201;2011-06-09;2024-05-17T22:56:42+00:00
166;237;2024-05-17T17:45:00+00:00;4283;1431;2833;7308;2949;2011-06-09;2024-05-17T22:56:42+00:00
167;238;2024-05-17T17:50:00+00:00;4045;1310;2650;6692;2745;2011-06-09;2024-05-17T22:56:42+00:00
168;239;2024-05-17T17:55:00+00:00;4618;1194;2461;6077;2661;2011-06-09;2024-05-17T22:56:42+00:00
169;240;2024-05-17T18:00:00+00:00;3509;1177;2306;5485;2594;2011-06-09;2024-05-17T22:56:42+00:00
170;241;2024-05-17T18:05:00+00:00;2494;1056;2150;4923;2388;2011-06-09;2024-05-17T22:56:42+00:00
171;242;2024-05-17T18:10:00+00:00;3201;1003;1994;4377;2243;2011-06-09;2024-05-17T22:56:42+00:00
172;243;2024-05-17T18:15:00+00:00;2468;893;1872;3892;2131;2011-06-09;2024-05-17T22:56:42+00:00
173;244;2024-05-17T18:20:00+00:00;2486;853;1750;3431;1887;2011-06-09;2024-05-17T22:56:42+00:00
174;245;2024-05-17T18:25:00+00:00;2563;807;1650;3042;1715;2011-06-09;2024-05-17T22:56:42+00:00
175;246;2024-05-17T18:30:00+00:00;1867;729;1550;2685;1574;2011-06-09;2024-05-17T22:56:42+00:00
176;247;2024-05-17T18:35:00+00:00;1484;711;1450;2385;1607;2011-06-09;2024-05-17T22:56:42+00:00
